[[{"header":{"parameterUnit":"m.s-1","parameterCategory":1,"la1":30.2991,"la2":30.254,"lo1":-89.0895,"lo2":-89.0444,"dy":0.0017,"dx":0.0017,"nx":28,"ny":28,"refTime":"2025-01-11T09:00:00:Z","depth":0,"parameterNumber":2,"parameterNumberName":"U-component_of_WINDS"},"data":[0,0,0,0,0,0,0,0,0,0,0,0,0,0,0,0,0,0,0,0,0,0,0,0,0,0,0,0,0,0,0,0,0,0,0,0,0,0,0,0,0,0,0,0,0,0,0,0,0,0,0,0,0,0,0,0,0,0,-2.993,-2.9931,0,-3.0018,-3.0019,-3.002,-3.0003,-3.0002,-3.0,-2.9999,-3.0087,-3.0091,-3.0095,0,0,0,0,0,0,0,0,0,0,0,0,0,-2.9744,-2.9748,-2.9929,-2.9931,-2.9932,-3.0018,-3.0019,-3.002,-3.0004,-3.0002,-3.0,-2.9998,-3.0086,-3.0091,-3.0095,0,0,0,0,0,0,0,0,0,0,0,0,0,-2.9828,-2.9749,-2.9929,-2.9934,-2.9935,-3.0017,-3.0019,-3.002,-3.0004,-3.0002,-2.9999,-2.9997,-3.0085,-3.009,-3.0096,-3.0179,0,0,-3.0114,-3.0116,0,0,0,0,0,0,0,0,-2.9823,-2.9834,-2.9932,-2.9934,-2.9935,-2.9997,-2.9986,-3.0073,-3.0005,-2.9978,-2.9999,-2.9996,-3.0059,-3.0067,-3.0089,-3.0183,-3.0187,-3.0114,-3.0118,-3.012,-3.0122,0,0,0,0,0,0,0,-2.9817,-2.9831,-2.9964,-2.9933,-2.9935,-2.9931,-2.994,-3.0003,-3.0031,-2.998,-2.9979,-2.999,-3.006,-3.0083,-3.0091,-3.0188,-3.0114,-3.0119,-3.0123,-3.0125,-3.0352,-3.0355,0,0,0,0,0,0,-2.981,-2.9826,-2.9962,-2.9967,-2.9872,-2.9936,-2.9946,-2.998,-3.003,-3.0035,-2.9992,-2.9989,-3.0074,-3.0084,-3.0094,-3.0192,-3.012,-3.0125,-3.0129,-3.035,-3.0353,-3.0356,0,0,0,0,0,0,-2.9806,-2.9822,-2.9958,-2.9896,-2.9913,-2.9942,-2.9979,-2.9983,-3.0006,-3.0039,-3.0043,-3.0011,-3.0073,-3.0086,-3.0157,-3.0195,-3.0128,-3.0133,-3.0347,-3.0351,-3.0354,-3.0391,0,0,0,0,0,0,-2.9801,-2.9821,-2.9854,-2.9897,-2.9917,-3.0021,-2.9982,-2.9986,-3.0016,-3.0013,-3.0058,-3.0063,-3.0072,-3.0149,-3.0163,-3.0202,-3.0138,-3.0343,-3.0348,-3.0353,-3.0386,-3.0395,-3.0403,0,0,0,0,0,-2.9794,-2.9861,-2.9855,-2.9872,-2.9958,-3.0023,-3.0034,-3.0044,-3.0019,-3.0052,-3.0072,-3.0062,-3.0189,-3.0156,-3.0172,-3.0213,-3.0341,-3.0347,-3.0353,-3.0382,-3.0393,-3.0403,0,0,0,0,0,0,-2.9821,-2.9866,-2.9861,-2.9943,-2.998,-3.002,-3.0061,-3.0056,-3.0099,-3.0095,-3.0104,-3.0114,-3.0187,-3.0207,-3.017,-3.0295,-3.0261,-3.0271,-3.0278,-3.0289,-3.0298,-3.029,-3.0142,0,0,0,0,0,-2.9836,-2.9886,-2.9923,-2.9992,-3.0011,-3.0033,-3.0062,-3.0066,-3.0104,-3.0119,-3.0145,-3.0181,-3.0229,-3.0261,-3.0307,-3.0389,-3.0398,-3.0425,-3.0434,-3.0441,-3.0448,-3.0491,-3.0503,-3.0375,-3.0375,-3.0375,0,0,-2.9868,-2.9899,-2.9931,-2.9998,-3.0027,-3.0077,-3.0046,-3.0101,-3.0138,-3.0127,-3.0196,-3.0216,-3.0258,-3.0334,-3.037,-3.0354,-3.0485,-3.0448,-3.0453,-3.0457,-3.0498,-3.051,-3.0521,-3.0379,-3.0378,-3.0377,0,0,-2.9952,-2.9982,-3.0041,-3.0071,-3.0114,-3.0128,-3.0143,-3.0184,-3.0197,-3.0267,-3.0259,-3.0303,-3.0386,-3.0415,-3.044,-3.0534,-3.0525,-3.0549,-3.0592,-3.0634,-3.0644,-3.0653,-3.0684,-3.0696,-3.0556,-3.0557,-3.0557,0,-2.9987,-3.0063,-3.0073,-3.0128,-3.0157,-3.015,-3.0209,-3.0237,-3.0293,-3.0313,-3.0295,-3.0397,-3.0425,-3.0507,-3.053,-3.0552,-3.0567,-3.0543,-3.0642,-3.0651,-3.066,-3.0689,-3.0701,-3.0559,-3.0559,-3.0558,-3.0558,0,-3.0102,-3.0155,-3.0198,-3.0252,-3.0286,-3.0343,-3.0361,-3.0394,-3.0395,-3.0411,-3.048,-3.0513,-3.0564,-3.0585,-3.0587,-3.0667,-3.0656,-3.064,-3.0606,-3.0674,-3.0702,-3.0714,-3.0563,-3.0562,-3.0561,-3.056,0,0,-3.0205,-3.0263,-3.0278,-3.0302,-3.0349,-3.0389,-3.0446,-3.0496,-3.0523,-3.0563,-3.0609,-3.0679,-3.0664,-3.0693,-3.0698,-3.0735,-3.0804,-3.0714,-3.0715,-3.0728,-3.0892,-3.0902,-3.0916,-3.0799,-3.0801,-3.0803,-3.0888,0,-3.0292,-3.0391,-3.0401,-3.049,-3.0537,-3.053,-3.0579,-3.0612,-3.0628,-3.0671,-3.0688,-3.0737,-3.0715,-3.0732,-3.0768,-3.0788,-3.0837,-3.0782,-3.084,-3.0842,-3.0828,-3.0931,-3.0942,-3.1021,-3.0899,-3.0901,-3.0903,0,-3.0407,-3.0448,-3.0541,-3.058,-3.06,-3.0644,-3.069,-3.0731,-3.0768,-3.0777,-3.0809,-3.0808,-3.0865,-3.083,-3.0907,-3.087,-3.0894,-3.0907,-3.091,-3.0915,-3.0875,-3.0936,-3.1046,-3.1057,-3.092,-3.0919,-3.0918,0,-3.047,-3.0549,-3.0615,-3.0635,-3.0682,-3.0713,-3.0734,-3.0768,-3.0797,-3.0838,-3.0856,-3.0903,-3.0928,-3.0963,-3.0975,-3.0949,-3.105,-3.1017,-3.1058,-3.1058,-3.1078,-3.1077,-3.1192,-3.1097,-3.1097,-3.1097,-3.1097,0,-3.0565,-3.0622,-3.0643,-3.0683,-3.0746,-3.0756,-3.0818,-3.0837,-3.0868,-3.0911,-3.0908,-3.0948,-3.0962,-3.1004,-3.1014,-3.1074,-3.1086,-3.1094,-3.1095,-3.1093,-3.1092,-3.1108,-3.1102,-3.11,-3.11,-3.1099,-3.1098,0,-3.0646,-3.0663,-3.0733,-3.0771,-3.0782,-3.0827,-3.0859,-3.0897,-3.0912,-3.0966,-3.0979,-3.1003,-3.1052,-3.1067,-3.1127,-3.1133,-3.1204,-3.1202,-3.1191,-3.1191,-3.123,-3.1225,-3.1359,-3.1376,-3.1271,-3.1272,-3.1273,0,-3.0704,-3.0748,-3.079,-3.0818,-3.084,-3.0886,-3.0916,-3.0927,-3.0958,-3.1002,-3.1034,-3.1083,-3.1122,-3.1201,-3.1223,-3.1268,-3.1266,-3.1309,-3.1272,-3.1268,-3.1264,-3.126,-3.1263,-3.1315,-3.1317,-3.1318,-3.1318,0,-3.0806,-3.0812,-3.0854,-3.09,-3.0934,-3.0971,-3.1006,-3.1029,-3.1045,-3.1079,-3.1129,-3.116,-3.122,-3.1268,-3.1313,-3.1334,-3.1328,-3.133,-3.1341,-3.1338,-3.133,-3.1333,-3.1208,-3.1326,-3.1326,-3.1325,-3.1325,-3.1324,-3.0876,-3.0913,-3.0948,-3.0995,-3.1023,-3.1055,-3.1092,-3.1111,-3.1153,-3.1203,-3.1207,-3.126,-3.1295,-3.1355,-3.1378,-3.1419,-3.1407,-3.1424,-3.1428,-3.1431,-3.1433,-3.1325,-3.1428,-3.1428,-3.1427,-3.1427,-3.1427,0,-3.0976,-3.0998,-3.1041,-3.1089,-3.1125,-3.1117,-3.1155,-3.1186,-3.1233,-3.1266,-3.1304,-3.136,-3.1406,-3.1432,-3.1477,-3.1505,-3.1504,-3.1517,-3.1514,-3.1518,-3.1443,-3.1428,-3.1517,-3.1517,-3.1517,-3.1517,-3.1517,-3.1517,-3.1032,-3.1094,-3.1103,-3.1178,-3.1199,-3.1252,-3.1273,-3.1303,-3.1328,-3.1391,-3.1429,-3.1445,-3.1475,-3.1522,-3.1563,-3.1569,-3.1585,-3.1599,-3.1604,-3.1533,-3.1524,-3.1515,-3.15,-3.1603,-3.1603,-3.1675,-3.1675,-3.1676]},{"header":{"parameterUnit":"m.s-1","parameterCategory":1,"la1":30.2991,"la2":30.254,"lo1":-89.0895,"lo2":-89.0444,"dy":0.0017,"dx":0.0017,"nx":28,"ny":28,"refTime":"2025-01-11T09:00:00:Z","depth":0,"parameterNumber":3,"parameterNumberName":"V-component_of_WINDS"},"data":[0,0,0,0,0,0,0,0,0,0,0,0,0,0,0,0,0,0,0,0,0,0,0,0,0,0,0,0,0,0,0,0,0,0,0,0,0,0,0,0,0,0,0,0,0,0,0,0,0,0,0,0,0,0,0,0,0,0,1.3598,1.3598,0,1.3569,1.3568,1.3568,1.3481,1.3479,1.3477,1.3475,1.3447,1.3448,1.3449,0,0,0,0,0,0,0,0,0,0,0,0,0,1.3583,1.3583,1.3599,1.3598,1.3598,1.3569,1.3568,1.3568,1.3481,1.3479,1.3476,1.3474,1.3446,1.3447,1.3449,0,0,0,0,0,0,0,0,0,0,0,0,0,1.3575,1.3584,1.3599,1.3551,1.3546,1.3569,1.3568,1.3568,1.3481,1.3479,1.3476,1.3473,1.3446,1.3447,1.3449,1.3516,0,0,1.3454,1.3454,0,0,0,0,0,0,0,0,1.3575,1.3576,1.3558,1.3554,1.3549,1.3525,1.3552,1.355,1.3482,1.3506,1.3475,1.3472,1.3475,1.3474,1.3475,1.3514,1.3513,1.3454,1.3455,1.3455,1.3456,0,0,0,0,0,0,0,1.3576,1.3576,1.3587,1.3558,1.3553,1.3532,1.3527,1.3551,1.3507,1.3504,1.3497,1.3495,1.3472,1.3474,1.3474,1.3513,1.3454,1.3455,1.3456,1.3457,1.3605,1.3608,0,0,0,0,0,0,1.3583,1.3577,1.3588,1.3586,1.3555,1.3534,1.3529,1.3536,1.3507,1.3499,1.3497,1.3491,1.3472,1.3472,1.3472,1.3547,1.3455,1.3457,1.3458,1.3602,1.3606,1.3609,0,0,0,0,0,0,1.3583,1.3585,1.3589,1.358,1.3579,1.3538,1.3545,1.3537,1.3538,1.3502,1.3494,1.3507,1.347,1.347,1.3505,1.3545,1.3457,1.3459,1.3598,1.3603,1.3607,1.37,0,0,0,0,0,0,1.3583,1.3585,1.361,1.3581,1.358,1.3622,1.3548,1.3538,1.3541,1.3532,1.3508,1.3502,1.3468,1.3503,1.3507,1.3546,1.346,1.3595,1.36,1.3606,1.3693,1.3707,1.3719,0,0,0,0,0,1.3583,1.3638,1.3612,1.3613,1.3609,1.3624,1.3624,1.3583,1.3544,1.3569,1.3545,1.3503,1.3541,1.3508,1.3511,1.3551,1.3592,1.3599,1.3605,1.3687,1.3704,1.3718,0,0,0,0,0,0,1.3673,1.3633,1.3604,1.3651,1.3642,1.361,1.3639,1.3602,1.3604,1.3596,1.3546,1.3542,1.3584,1.3571,1.3535,1.3614,1.3559,1.3567,1.362,1.3636,1.3649,1.365,1.3461,0,0,0,0,0,1.3699,1.3714,1.3678,1.3723,1.372,1.3681,1.3686,1.3655,1.3644,1.364,1.3619,1.361,1.362,1.3628,1.3635,1.3691,1.3684,1.372,1.3733,1.3744,1.3751,1.3779,1.3794,1.3631,1.3631,1.3631,0,0,1.3751,1.3731,1.3744,1.3741,1.373,1.3747,1.3678,1.3699,1.3711,1.3643,1.3674,1.3659,1.3646,1.3692,1.3711,1.3683,1.3795,1.3753,1.3762,1.3763,1.3788,1.3803,1.3817,1.3636,1.3635,1.3634,0,0,1.3855,1.3842,1.3877,1.3868,1.3852,1.3826,1.3835,1.3808,1.3795,1.3826,1.3775,1.3789,1.3808,1.38,1.3799,1.3901,1.3861,1.3905,1.3972,1.4,1.4013,1.4024,1.4059,1.4072,1.3912,1.3912,1.3913,0,1.3922,1.3945,1.39,1.3924,1.3924,1.3863,1.3899,1.3892,1.388,1.3882,1.3851,1.3872,1.3859,1.3902,1.3927,1.3928,1.3936,1.3906,1.4014,1.4025,1.4035,1.4068,1.4081,1.3918,1.3917,1.3916,1.3916,0,1.4028,1.4045,1.4076,1.4064,1.4068,1.4098,1.4058,1.4068,1.4038,1.4015,1.4047,1.4029,1.4031,1.404,1.4011,1.4078,1.4061,1.4023,1.3967,1.4056,1.4086,1.4099,1.3925,1.3923,1.3922,1.392,0,0,1.4187,1.415,1.4162,1.4156,1.4135,1.4147,1.4175,1.4176,1.4185,1.4179,1.4201,1.4218,1.4182,1.4181,1.4151,1.4175,1.4256,1.4134,1.4133,1.4156,1.4329,1.4356,1.4372,1.423,1.4233,1.4234,1.4329,0,1.4284,1.4327,1.4288,1.4339,1.4354,1.4296,1.432,1.431,1.429,1.43,1.4278,1.429,1.4243,1.4242,1.4264,1.4242,1.429,1.4234,1.425,1.4251,1.4253,1.4387,1.4417,1.4507,1.4341,1.4343,1.4344,0,1.4402,1.44,1.4453,1.4428,1.4432,1.4454,1.4452,1.4463,1.445,1.4434,1.4433,1.4396,1.4421,1.4368,1.4403,1.4366,1.437,1.436,1.4363,1.4361,1.4302,1.4388,1.4535,1.4548,1.4363,1.4361,1.436,0,1.451,1.4522,1.4554,1.4551,1.4523,1.454,1.4529,1.4514,1.4517,1.4516,1.4517,1.452,1.4521,1.4524,1.4489,1.4453,1.4528,1.4472,1.4515,1.4516,1.4531,1.4531,1.4679,1.4538,1.4537,1.4537,1.4537,0,1.4622,1.4656,1.4602,1.4622,1.4659,1.4614,1.4652,1.4636,1.4623,1.4639,1.459,1.4607,1.456,1.4572,1.4545,1.4577,1.4578,1.4566,1.4558,1.4569,1.457,1.4569,1.4562,1.4541,1.454,1.4539,1.4539,0,1.4748,1.4714,1.4745,1.4716,1.471,1.4738,1.4713,1.473,1.4707,1.4728,1.4731,1.4695,1.4706,1.4672,1.4678,1.466,1.4706,1.4689,1.471,1.4704,1.4748,1.4744,1.49,1.4918,1.4767,1.4769,1.477,0,1.482,1.4845,1.4818,1.4825,1.4816,1.4828,1.4831,1.4789,1.4794,1.4782,1.4801,1.4808,1.4811,1.4832,1.4807,1.4811,1.4793,1.4847,1.4793,1.4803,1.4792,1.479,1.4792,1.4858,1.486,1.4861,1.4863,0,1.4952,1.4934,1.4939,1.4939,1.4943,1.4941,1.4936,1.4945,1.4899,1.4908,1.4918,1.4921,1.4927,1.4934,1.4933,1.4923,1.4885,1.488,1.489,1.4901,1.4911,1.4904,1.4739,1.4876,1.4875,1.4874,1.4873,1.4873,1.5052,1.5071,1.5054,1.5062,1.5054,1.505,1.5064,1.5043,1.5051,1.5051,1.5027,1.5042,1.5029,1.5024,1.5018,1.5029,1.5004,1.5019,1.5022,1.5026,1.5033,1.4911,1.503,1.5029,1.5029,1.5028,1.5028,0,1.5179,1.5166,1.5173,1.5167,1.5173,1.5138,1.513,1.5138,1.5151,1.5143,1.5147,1.5159,1.5166,1.5142,1.5145,1.516,1.5143,1.5162,1.5159,1.5158,1.5056,1.5046,1.5176,1.5176,1.5176,1.5175,1.5175,1.5175,1.5246,1.5275,1.5256,1.5281,1.5267,1.5281,1.528,1.5276,1.5269,1.5284,1.5289,1.5273,1.5258,1.5261,1.5266,1.5259,1.5262,1.5287,1.5274,1.5179,1.5165,1.5151,1.5141,1.5289,1.5289,1.5374,1.5375,1.5375]}]]